SCP
-0 -0 0 0 0 -0 -0 -0 -0 -0 -0 -0 0 0 0 0 0 0 0 0 0 0 0 0 0 0 0 0 0 0 0 1 1 1 1 1 1 1 1 1 0 0 1
-0 0 0 0 0 -0 -0 -0 -0 -0 -0 -0 0 0 0 0 0 0 0 0 0 0 0 0 0 0 0 0 0 0 0 0 0 1 1 0 0 1 1 1 0 1 1
0 0 0 0 0 -0 -0 -0 -0 -0 0 0 0 0 0 0 0 0 0 0 0 0 0 0 0 0 0 0 0 0 0 0 0 0 1 0 1 1 1 1 1 1 1
0 0 0 0 0 0 0 0 0 0 0 0 0 0 0 0 0 0 0 0 0 0 0 0 0 0 0 0 0 0 0 0 0 0 1 1 0 1 1 1 1 1 0
0 0 0 0 0 0 0 0 0 0 0 0 0 0 0 0 0 0 0 0 0 0 0 0 0 0 0 0 0 0 0 0 0 0 1 2 2 1 1 2 1 1 1
0 0 0 0 0 0 0 0 0 0 0 0 0 0 0 0 0 0 0 0 0 0 0 0 0 0 0 0 0 0 0 0 0 0 1 1 2 2 2 1 1 1 1
0 0 0 0 0 0 0 0 0 0 0 0 0 0 0 0 0 0 0 0 0 0 0 0 0 0 0 0 0 0 0 0 0 0 0 1 0 1 2 2 1 1 1
0 0 0 0 0 0 0 0 0 0 0 0 0 0 0 0 0 0 0 0 0 0 0 0 0 0 0 0 0 0 0 0 0 0 0 0 0 0 1 2 2 2 1
0 0 0 0 0 0 0 0 0 0 0 0 0 0 0 0 0 0 0 0 0 0 0 0 0 0 0 0 0 0 0 0 0 0 0 0 0 0 0 1 0 1 2
0 0 0 0 0 0 0 0 0 0 0 0 0 0 0 0 0 0 0 0 0 0 0 0 0 0 0 0 0 0 0 0 0 0 0 0 0 0 0 0 0 0 0
0 0 0 0 0 0 0 0 0 0 0 0 0 0 0 0 0 0 0 0 0 0 0 0 0 0 0 0 0 0 0 0 0 0 0 0 0 0 0 0 0 0 0
0 0 0 0 0 0 0 0 0 0 0 0 0 0 0 0 0 0 0 0 0 0 0 0 0 0 0 0 0 0 0 0 0 0 0 0 0 0 0 0 0 0 0
0 0 0 0 0 0 0 0 0 0 0 0 0 0 0 0 0 0 0 0 0 0 0 0 0 0 0 0 0 0 0 0 0 0 0 0 0 0 0 0 0 0 0
0 0 0 0 0 0 0 0 0 0 0 0 0 0 0 0 0 0 0 0 0 0 0 0 0 0 0 0 0 0 0 0 0 0 0 0 0 0 0 0 0 0 0
0 0 0 0 0 0 0 0 0 0 0 0 0 0 0 0 0 0 0 0 0 0 0 0 0 0 0 0 0 0 0 0 0 0 0 0 0 0 0 0 0 0 0
0 0 0 0 0 0 0 0 0 0 0 0 0 0 0 0 0 0 0 0 0 0 0 0 0 0 0 0 0 0 0 0 0 0 0 0 0 0 0 0 0 0 0
0 0 0 0 0 0 0 0 0 0 0 0 0 0 0 0 0 0 0 0 0 0 0 0 0 0 0 0 0 0 0 0 0 0 0 0 0 0 0 0 0 0 0
0 0 0 0 0 0 0 0 0 0 0 0 0 0 0 0 0 0 0 0 0 0 0 0 0 0 0 0 0 0 0 0 0 0 0 0 0 0 0 0 0 0 0
0 0 0 0 0 0 0 0 0 0 0 0 0 0 0 0 0 0 0 0 0 0 0 0 0 0 0 0 0 0 0 0 0 0 0 0 0 0 0 0 0 0 0
0 0 0 0 0 0 0 0 0 0 0 0 0 0 0 0 0 0 0 0 0 0 0 0 0 0 0 0 0 0 -0 0 -0 0 0 0 0 0 0 0 0 0 0
0 0 0 0 0 0 0 0 0 0 0 0 0 0 0 0 0 0 0 0 0 0 0 0 0 0 0 0 0 0 -0 -0 -0 0 0 0 0 0 0 0 0 0 0
0 0 0 0 0 0 0 0 0 0 0 0 0 0 0 0 0 0 0 0 0 0 0 0 0 0 0 -0 -0 -0 -0 -0 0 0 0 0 0 0 0 0 0 0 0
0 0 0 0 0 0 0 0 0 0 0 0 0 0 0 0 0 0 0 0 0 0 0 0 0 0 0 -0 -0 -0 -0 -0 0 0 0 0 0 0 0 0 0 0 0
0 0 0 0 0 0 0 0 0 0 0 0 0 0 0 0 0 0 0 0 0 0 0 0 0 0 0 0 0 0 -0 -0 -0 0 0 0 0 0 0 0 0 0 0
0 0 0 0 0 0 0 0 0 0 0 0 0 0 0 0 0 0 0 0 0 0 0 0 0 0 0 0 0 -0 -0 -0 -0 -0 0 0 0 0 0 0 0 0 0
0 0 0 0 0 0 0 0 0 0 0 0 0 0 0 0 0 0 0 0 0 0 0 0 0 0 0 0 0 0 -0 -0 -0 -0 -0 0 0 0 0 0 0 0 0
Wind_Speed_500mb
30 29 21 20 20 19 18 19 21 22 22 24 25 26 26 26 27 28 27 25 22 18 17 17 20 24 23 25 27 28 30 32 31 28 24 20 20 20 22 20 19 13 20
20 24 18 21 20 20 21 24 27 29 31 34 35 35 33 32 32 31 32 33 33 33 33 34 36 40 34 33 34 34 31 32 34 34 33 27 19 23 23 24 24 20 28
19 20 24 20 22 24 27 31 35 39 41 42 43 43 42 41 40 40 39 36 33 33 36 41 43 47 45 44 44 44 42 40 37 35 33 26 21 33 27 28 29 32 30
17 18 20 22 29 31 32 37 40 42 43 43 42 43 45 44 46 47 47 45 41 42 43 45 45 46 47 51 50 50 47 43 40 35 21 23 25 32 32 31 33 34 31
16 15 17 23 30 36 42 46 47 46 44 42 43 44 45 44 45 43 45 44 45 44 43 46 48 50 50 48 51 51 50 49 40 29 25 27 26 27 37 38 34 37 35
5 14 19 26 35 41 44 45 45 45 44 45 45 44 44 41 42 41 42 42 45 45 47 50 47 46 46 47 51 54 50 51 45 25 21 22 26 38 37 42 41 41 43
6 12 23 30 38 41 40 41 42 44 46 48 49 49 48 49 49 49 47 44 45 43 44 46 48 48 47 44 43 47 50 46 44 41 41 29 36 37 26 35 42 43 46
11 17 21 28 35 38 40 42 45 47 48 50 50 49 49 49 48 48 48 47 48 47 44 44 46 49 51 49 45 43 43 41 42 29 42 49 47 38 41 30 34 42 46
13 18 23 24 34 39 40 43 45 48 49 49 50 50 51 49 48 47 48 50 51 53 53 54 52 49 48 48 48 46 41 37 35 26 30 32 54 50 43 41 39 40 47
15 20 25 27 29 34 42 44 46 47 49 53 55 56 55 54 52 50 49 50 50 50 50 49 50 49 44 43 40 43 41 34 24 25 22 30 50 52 48 61 40 41 50
17 22 28 29 32 33 35 43 46 52 55 56 57 58 53 51 49 48 49 48 47 45 45 45 46 45 41 39 37 34 29 20 28 21 20 45 55 52 57 55 64 50 48
17 22 26 29 33 32 32 39 43 47 50 55 56 57 53 54 52 50 46 46 46 47 45 47 47 45 38 33 31 30 22 27 23 24 22 45 50 52 57 64 58 59 52
17 21 27 34 36 34 35 39 38 37 46 48 55 57 53 49 48 43 37 38 39 42 39 42 39 37 39 35 33 30 30 27 23 24 25 44 48 51 50 59 69 58 57
17 23 27 32 35 40 35 36 37 39 44 42 46 55 52 44 43 40 36 38 37 38 42 42 40 42 39 36 34 35 33 27 24 25 23 44 44 53 49 49 57 65 66
15 23 28 33 37 38 35 33 35 37 38 39 39 49 50 39 40 37 36 37 36 36 41 41 41 41 37 36 35 37 35 30 26 22 22 36 33 47 49 51 43 48 51
15 22 28 32 34 33 34 37 32 33 33 34 35 43 44 39 38 35 34 35 39 37 39 40 42 40 38 36 35 39 36 30 25 22 20 20 34 32 36 45 54 52 59
13 21 27 28 32 34 33 29 27 33 32 32 32 36 41 40 39 34 33 36 40 37 39 41 42 40 38 36 39 38 36 29 23 19 23 21 20 29 39 35 49 56 55
11 19 25 26 29 34 35 30 24 29 28 29 30 32 39 39 40 32 33 37 41 37 39 41 42 42 40 41 45 38 36 26 20 23 24 23 20 22 27 36 41 46 55
8 19 22 25 29 31 32 24 26 29 26 28 29 30 34 34 38 35 34 37 40 35 35 39 40 42 43 44 47 41 34 23 11 32 21 27 22 26 27 30 37 32 45
8 20 20 22 29 30 25 23 23 24 25 26 27 28 31 31 35 35 34 38 39 37 36 40 41 40 38 44 45 43 24 16 6 36 25 22 26 31 29 31 29 24 39
8 15 17 21 29 27 24 25 25 26 25 25 26 28 28 30 33 34 35 37 39 38 36 39 40 41 38 41 45 45 20 22 13 44 19 24 33 34 32 31 27 26 24
4 11 14 19 26 28 22 24 25 24 24 24 25 25 27 29 32 34 37 37 39 38 37 38 39 40 35 37 44 36 29 7 30 22 35 25 33 36 31 31 31 24 24
3 7 11 18 23 27 29 24 25 23 22 25 25 25 26 29 32 34 35 36 37 36 37 37 36 36 36 32 32 29 23 20 53 18 20 39 38 37 35 31 28 25 26
5 5 11 20 21 23 27 23 26 26 25 25 25 25 25 28 30 32 33 36 37 35 37 36 33 37 36 32 30 21 20 31 35 36 36 30 40 35 36 34 26 25 22
7 4 12 18 18 21 21 27 25 24 23 23 25 26 27 27 29 31 33 35 37 36 36 37 39 39 35 33 28 28 29 31 28 34 51 49 42 36 36 32 29 24 18
9 5 11 13 17 19 22 26 26 25 24 24 27 26 28 28 28 30 33 35 37 37 37 38 38 38 36 32 28 26 29 33 36 33 39 47 45 43 35 27 25 22 28
Wind_Direction_500mb
28 31 24 19 23 22 19 9 2 360 353 346 344 343 342 339 331 325 316 307 297 294 296 302 291 279 268 260 261 268 267 265 264 261 256 253 250 245 245 236 226 209 230
45 27 25 13 14 12 11 5 0 356 351 349 347 343 340 337 332 328 327 327 317 304 294 288 278 275 273 268 263 260 261 263 262 262 260 256 264 249 236 233 222 203 226
50 43 33 5 356 357 353 350 346 344 344 343 340 335 333 330 323 320 317 316 312 303 299 293 291 284 277 272 269 266 261 256 253 255 258 259 245 259 236 226 222 211 211
53 40 36 349 342 347 348 346 346 346 346 345 343 342 341 340 334 334 328 324 316 304 296 293 291 288 285 284 276 270 267 265 264 261 264 260 255 258 233 225 220 215 213
53 31 14 340 343 348 350 349 348 349 349 346 346 346 346 345 341 340 334 333 328 325 318 304 296 292 286 281 279 278 276 272 270 269 259 259 245 256 240 223 220 218 216
31 25 355 345 348 348 348 348 348 349 348 348 348 348 344 344 339 335 331 327 323 321 318 317 316 308 299 291 283 279 275 272 272 272 278 272 244 242 240 223 220 213 213
354 5 358 351 350 350 350 352 351 348 349 348 346 346 345 342 338 335 333 330 322 317 312 311 307 306 303 299 293 286 280 270 265 258 251 254 238 232 235 230 223 219 216
12 10 7 359 351 353 355 354 350 350 349 347 347 346 344 342 341 337 334 334 329 327 322 313 307 301 298 295 293 290 286 279 265 270 252 241 246 248 235 226 223 226 220
20 18 15 8 358 355 356 352 350 348 347 347 346 348 350 348 347 347 341 337 333 330 328 325 320 314 305 299 292 286 283 281 271 270 262 258 243 234 230 226 219 214 218
34 24 16 11 6 1 354 352 349 348 348 349 351 354 353 354 353 348 345 339 335 332 327 322 320 321 322 316 299 285 277 276 276 277 268 255 244 232 228 217 220 216 220
31 23 18 13 7 0 353 349 352 352 353 354 355 354 357 354 351 347 341 338 334 329 326 323 322 325 325 327 317 300 290 291 277 277 269 258 248 235 229 225 216 220 218
40 28 15 12 6 5 359 357 355 355 355 354 355 356 354 353 349 347 344 341 341 341 343 341 338 342 340 335 328 330 319 296 297 280 272 256 249 242 236 231 228 216 220
47 24 18 11 8 6 359 1 357 356 354 354 353 356 353 352 351 352 351 349 349 345 346 345 344 340 335 335 329 327 324 318 302 289 276 260 248 249 240 240 235 230 223
45 32 19 10 5 4 5 358 355 353 357 356 354 354 355 357 358 356 353 353 353 350 348 349 345 340 337 332 330 326 326 322 307 299 292 280 248 251 246 242 240 238 237
49 24 13 7 5 5 2 359 355 358 355 358 355 355 1 2 358 357 355 355 353 350 351 349 345 343 340 334 334 328 326 322 315 308 299 298 268 256 253 243 244 237 241
47 16 10 5 5 7 2 359 2 358 358 358 358 358 2 4 358 358 357 357 354 354 351 350 347 345 342 336 331 330 329 325 318 313 307 301 310 278 272 250 244 237 229
34 12 9 7 8 11 5 5 2 358 0 359 359 357 1 2 1 1 357 357 355 352 353 352 350 349 344 340 335 333 330 325 322 328 334 309 307 319 306 266 253 248 242
38 11 11 16 12 6 2 0 3 359 4 1 1 359 359 0 3 1 359 357 357 356 353 354 352 350 349 347 339 337 331 328 324 340 328 324 308 303 310 302 267 256 248
34 13 19 16 10 7 357 3 1 359 0 1 360 358 359 359 3 5 358 357 0 357 354 354 354 352 350 346 342 339 329 327 328 342 343 331 320 317 309 301 300 268 261
24 17 19 15 7 5 8 4 356 354 357 358 358 359 360 359 2 4 360 357 360 355 355 355 354 352 352 344 349 342 329 331 272 354 337 342 325 325 317 311 305 292 273
27 20 24 11 3 9 10 4 0 356 350 353 356 355 1 359 0 1 1 357 359 355 356 354 352 350 355 353 352 354 348 326 306 325 306 328 331 328 320 314 313 292 287
32 23 26 14 4 11 7 4 359 352 351 354 349 352 353 358 359 359 359 357 356 355 354 352 351 348 354 359 356 353 350 5 331 345 331 329 330 331 323 316 313 304 291
103 34 30 13 8 8 15 0 360 355 354 346 348 347 348 355 356 355 357 356 356 356 352 350 346 347 346 355 2 0 349 338 333 319 339 331 330 329 324 322 316 300 275
164 42 27 11 14 6 8 5 3 1 353 342 344 340 350 349 353 355 356 356 355 354 351 348 340 343 346 341 346 339 333 318 319 319 318 326 333 329 324 321 316 305 295
142 94 21 14 16 10 8 6 6 360 350 343 343 346 346 347 349 352 356 354 353 352 350 344 345 345 340 336 330 327 327 325 318 312 310 322 327 329 323 320 318 305 283
142 75 32 24 13 9 8 4 3 358 350 347 345 349 348 346 347 347 354 352 350 349 348 344 342 341 329 330 322 322 320 320 316 313 305 314 318 325 323 314 313 309 303
Wind_Speed_850mb
30 29 21 20 20 19 18 19 21 22 22 24 25 26 26 26 27 28 27 25 22 18 17 17 20 24 23 25 27 28 30 32 31 28 24 20 20 20 22 20 19 13 20
20 24 18 21 20 20 21 24 27 29 31 34 35 35 33 32 32 31 32 33 33 33 33 34 36 40 34 33 34 34 31 32 34 34 33 27 19 23 23 24 24 20 28
19 20 24 20 22 24 27 31 35 39 41 42 43 43 42 41 40 40 39 36 33 33 36 41 43 47 45 44 44 44 42 40 37 35 33 26 21 33 27 28 29 32 30
17 18 20 22 29 31 32 37 40 42 43 43 42 43 45 44 46 47 47 45 41 42 43 45 45 46 47 51 50 50 47 43 40 35 21 23 25 32 32 31 33 34 31
16 15 17 23 30 36 42 46 47 46 44 42 43 44 45 44 45 43 45 44 45 44 43 46 48 50 50 48 51 51 50 49 40 29 25 27 26 27 37 38 34 37 35
5 14 19 26 35 41 44 45 45 45 44 45 45 44 44 41 42 41 42 42 45 45 47 50 47 46 46 47 51 54 50 51 45 25 21 22 26 38 37 42 41 41 43
6 12 23 30 38 41 40 41 42 44 46 48 49 49 48 49 49 49 47 44 45 43 44 46 48 48 47 44 43 47 50 46 44 41 41 29 36 37 26 35 42 43 46
11 17 21 28 35 38 40 42 45 47 48 50 50 49 49 49 48 48 48 47 48 47 44 44 46 49 51 49 45 43 43 41 42 29 42 49 47 38 41 30 34 42 46
13 18 23 24 34 39 40 43 45 48 49 49 50 50 51 49 48 47 48 50 51 53 53 54 52 49 48 48 48 46 41 37 35 26 30 32 54 50 43 41 39 40 47
15 20 25 27 29 34 42 44 46 47 49 53 55 56 55 54 52 50 49 50 50 50 50 49 50 49 44 43 40 43 41 34 24 25 22 30 50 52 48 61 40 41 50
17 22 28 29 32 33 35 43 46 52 55 56 57 58 53 51 49 48 49 48 47 45 45 45 46 45 41 39 37 34 29 20 28 21 20 45 55 52 57 55 64 50 48
17 22 26 29 33 32 32 39 43 47 50 55 56 57 53 54 52 50 46 46 46 47 45 47 47 45 38 33 31 30 22 27 23 24 22 45 50 52 57 64 58 59 52
17 21 27 34 36 34 35 39 38 37 46 48 55 57 53 49 48 43 37 38 39 42 39 42 39 37 39 35 33 30 30 27 23 24 25 44 48 51 50 59 69 58 57
17 23 27 32 35 40 35 36 37 39 44 42 46 55 52 44 43 40 36 38 37 38 42 42 40 42 39 36 34 35 33 27 24 25 23 44 44 53 49 49 57 65 66
15 23 28 33 37 38 35 33 35 37 38 39 39 49 50 39 40 37 36 37 36 36 41 41 41 41 37 36 35 37 35 30 26 22 22 36 33 47 49 51 43 48 51
15 22 28 32 34 33 34 37 32 33 33 34 35 43 44 39 38 35 34 35 39 37 39 40 42 40 38 36 35 39 36 30 25 22 20 20 34 32 36 45 54 52 59
13 21 27 28 32 34 33 29 27 33 32 32 32 36 41 40 39 34 33 36 40 37 39 41 42 40 38 36 39 38 36 29 23 19 23 21 20 29 39 35 49 56 55
11 19 25 26 29 34 35 30 24 29 28 29 30 32 39 39 40 32 33 37 41 37 39 41 42 42 40 41 45 38 36 26 20 23 24 23 20 22 27 36 41 46 55
8 19 22 25 29 31 32 24 26 29 26 28 29 30 34 34 38 35 34 37 40 35 35 39 40 42 43 44 47 41 34 23 11 32 21 27 22 26 27 30 37 32 45
8 20 20 22 29 30 25 23 23 24 25 26 27 28 31 31 35 35 34 38 39 37 36 40 41 40 38 44 45 43 24 16 6 36 25 22 26 31 29 31 29 24 39
8 15 17 21 29 27 24 25 25 26 25 25 26 28 28 30 33 34 35 37 39 38 36 39 40 41 38 41 45 45 20 22 13 44 19 24 33 34 32 31 27 26 24
4 11 14 19 26 28 22 24 25 24 24 24 25 25 27 29 32 34 37 37 39 38 37 38 39 40 35 37 44 36 29 7 30 22 35 25 33 36 31 31 31 24 24
3 7 11 18 23 27 29 24 25 23 22 25 25 25 26 29 32 34 35 36 37 36 37 37 36 36 36 32 32 29 23 20 53 18 20 39 38 37 35 31 28 25 26
5 5 11 20 21 23 27 23 26 26 25 25 25 25 25 28 30 32 33 36 37 35 37 36 33 37 36 32 30 21 20 31 35 36 36 30 40 35 36 34 26 25 22
7 4 12 18 18 21 21 27 25 24 23 23 25 26 27 27 29 31 33 35 37 36 36 37 39 39 35 33 28 28 29 31 28 34 51 49 42 36 36 32 29 24 18
9 5 11 13 17 19 22 26 26 25 24 24 27 26 28 28 28 30 33 35 37 37 37 38 38 38 36 32 28 26 29 33 36 33 39 47 45 43 35 27 25 22 28
Wind_Direction_850mb
28 31 24 19 23 22 19 9 2 360 353 346 344 343 342 339 331 325 316 307 297 294 296 302 291 279 268 260 261 268 267 265 264 261 256 253 250 245 245 236 226 209 230
45 27 25 13 14 12 11 5 0 356 351 349 347 343 340 337 332 328 327 327 317 304 294 288 278 275 273 268 263 260 261 263 262 262 260 256 264 249 236 233 222 203 226
50 43 33 5 356 357 353 350 346 344 344 343 340 335 333 330 323 320 317 316 312 303 299 293 291 284 277 272 269 266 261 256 253 255 258 259 245 259 236 226 222 211 211
53 40 36 349 342 347 348 346 346 346 346 345 343 342 341 340 334 334 328 324 316 304 296 293 291 288 285 284 276 270 267 265 264 261 264 260 255 258 233 225 220 215 213
53 31 14 340 343 348 350 349 348 349 349 346 346 346 346 345 341 340 334 333 328 325 318 304 296 292 286 281 279 278 276 272 270 269 259 259 245 256 240 223 220 218 216
31 25 355 345 348 348 348 348 348 349 348 348 348 348 344 344 339 335 331 327 323 321 318 317 316 308 299 291 283 279 275 272 272 272 278 272 244 242 240 223 220 213 213
354 5 358 351 350 350 350 352 351 348 349 348 346 346 345 342 338 335 333 330 322 317 312 311 307 306 303 299 293 286 280 270 265 258 251 254 238 232 235 230 223 219 216
12 10 7 359 351 353 355 354 350 350 349 347 347 346 344 342 341 337 334 334 329 327 322 313 307 301 298 295 293 290 286 279 265 270 252 241 246 248 235 226 223 226 220
20 18 15 8 358 355 356 352 350 348 347 347 346 348 350 348 347 347 341 337 333 330 328 325 320 314 305 299 292 286 283 281 271 270 262 258 243 234 230 226 219 214 218
34 24 16 11 6 1 354 352 349 348 348 349 351 354 353 354 353 348 345 339 335 332 327 322 320 321 322 316 299 285 277 276 276 277 268 255 244 232 228 217 220 216 220
31 23 18 13 7 0 353 349 352 352 353 354 355 354 357 354 351 347 341 338 334 329 326 323 322 325 325 327 317 300 290 291 277 277 269 258 248 235 229 225 216 220 218
40 28 15 12 6 5 359 357 355 355 355 354 355 356 354 353 349 347 344 341 341 341 343 341 338 342 340 335 328 330 319 296 297 280 272 256 249 242 236 231 228 216 220
47 24 18 11 8 6 359 1 357 356 354 354 353 356 353 352 351 352 351 349 349 345 346 345 344 340 335 335 329 327 324 318 302 289 276 260 248 249 240 240 235 230 223
45 32 19 10 5 4 5 358 355 353 357 356 354 354 355 357 358 356 353 353 353 350 348 349 345 340 337 332 330 326 326 322 307 299 292 280 248 251 246 242 240 238 237
49 24 13 7 5 5 2 359 355 358 355 358 355 355 1 2 358 357 355 355 353 350 351 349 345 343 340 334 334 328 326 322 315 308 299 298 268 256 253 243 244 237 241
47 16 10 5 5 7 2 359 2 358 358 358 358 358 2 4 358 358 357 357 354 354 351 350 347 345 342 336 331 330 329 325 318 313 307 301 310 278 272 250 244 237 229
34 12 9 7 8 11 5 5 2 358 0 359 359 357 1 2 1 1 357 357 355 352 353 352 350 349 344 340 335 333 330 325 322 328 334 309 307 319 306 266 253 248 242
38 11 11 16 12 6 2 0 3 359 4 1 1 359 359 0 3 1 359 357 357 356 353 354 352 350 349 347 339 337 331 328 324 340 328 324 308 303 310 302 267 256 248
34 13 19 16 10 7 357 3 1 359 0 1 360 358 359 359 3 5 358 357 0 357 354 354 354 352 350 346 342 339 329 327 328 342 343 331 320 317 309 301 300 268 261
24 17 19 15 7 5 8 4 356 354 357 358 358 359 360 359 2 4 360 357 360 355 355 355 354 352 352 344 349 342 329 331 272 354 337 342 325 325 317 311 305 292 273
27 20 24 11 3 9 10 4 0 356 350 353 356 355 1 359 0 1 1 357 359 355 356 354 352 350 355 353 352 354 348 326 306 325 306 328 331 328 320 314 313 292 287
32 23 26 14 4 11 7 4 359 352 351 354 349 352 353 358 359 359 359 357 356 355 354 352 351 348 354 359 356 353 350 5 331 345 331 329 330 331 323 316 313 304 291
103 34 30 13 8 8 15 0 360 355 354 346 348 347 348 355 356 355 357 356 356 356 352 350 346 347 346 355 2 0 349 338 333 319 339 331 330 329 324 322 316 300 275
164 42 27 11 14 6 8 5 3 1 353 342 344 340 350 349 353 355 356 356 355 354 351 348 340 343 346 341 346 339 333 318 319 319 318 326 333 329 324 321 316 305 295
142 94 21 14 16 10 8 6 6 360 350 343 343 346 346 347 349 352 356 354 353 352 350 344 345 345 340 336 330 327 327 325 318 312 310 322 327 329 323 320 318 305 283
142 75 32 24 13 9 8 4 3 358 350 347 345 349 348 346 347 347 354 352 350 349 348 344 342 341 329 330 322 322 320 320 316 313 305 314 318 325 323 314 313 309 303